Simultaneous Nadir Overpasses (SNOs) Predictions

Prediction of SNOs between GOES-16 and NOAA-20 Satellite Orbit:

Table of predicted SNOs for the next 14.0 days since TLE Epoch: 4/12/2019
Index Date Time (GOES-16) GOES-16 Lat,Lon NOAA-20 Lat,Lon Distance(km) Time Diff (sec)
1 04/13/2019 18:23:25 -0.01, -75.20 0.18, -74.26 107.05 80
2 04/15/2019 06:45:12 0.01, -75.20 1.00, -79.53 493.20 80
3 04/16/2019 06:23:48 0.02, -75.21 -0.03, -75.00 23.65 80
4 04/18/2019 18:26:59 0.02, -75.23 -0.12, -75.78 63.66 80
5 04/19/2019 18:10:55 0.02, -75.24 0.92, -71.26 453.66 80
6 04/21/2019 06:32:42 -0.02, -75.25 0.26, -76.53 145.02 80
7 04/22/2019 06:11:18 -0.02, -75.26 -0.78, -72.00 372.70 80
8 04/23/2019 18:33:13 0.02, -75.28 -0.46, -77.30 229.92 80
9 04/24/2019 18:17:09 0.02, -75.30 0.58, -72.77 288.23 80
10 04/26/2019 06:38:56 -0.02, -75.33 0.60, -78.04 309.40 80




NCC Satellite Simultaneous Nadir Overpasses (SNOs) Prediction Service
